Crane Lake, MN

4:54 AM CDT on October 23, 2017 (GMT -0500)
Crane Lake

Weather History for KCDD - March, 2012

Change the Weather History Date:

Thursday, March 1, 2012

  Actual Average Record
Temperature  
Mean Temperature 28 °F -  
Max Temperature 33 °F 24 °F 44 °F (2001)
Min Temperature 23 °F 3 °F -29 °F (2014)
Degree Days  
Heating Degree Days 37    
Moisture  
Dew Point 22 °F    
Average Humidity 78    
Maximum Humidity 93    
Minimum Humidity 60    
Precipitation  
Precipitation 0.00 in - - ()
Sea Level Pressure  
Sea Level Pressure 29.75 in    
Wind  
Wind Speed 0 mph (SSE)    
Max Wind Speed 4 mph    
Max Gust Speed -    
Visibility 10 miles    
Events Rain    
Averages and records for this station are not official NWS values.
T = Trace of Precipitation, MM = Missing Value Source: NWS Daily Summary

Daily Weather History Graph

Daily Weather History Graph

Search for Another Location

Airport or City:

Trip Planner

Search our weather history database for the weather conditions in past years. The results will help you decide how hot, cold, wet, or windy it might be!

Date:

Astronomy

Mar. 01, 2012 Rise Set
Actual Time 6:50 AM CST 5:54 PM CST
Civil Twilight 6:18 AM CST 6:26 PM CST
Nautical Twilight 5:42 AM CST 7:02 PM CST
Astronomical Twilight 5:06 AM CST 7:38 PM CST
Moon 10:53 AM CST (3/1) 2:11 AM CST (3/1)
Length of Visible Light 12h 07m
Length of Day
11h 04m
First Quarter, 57% of the Moon is Illuminated
Mar 1
First Quarter
Mar 8
Full
Mar 14
Last Quarter
Mar 22
New
Mar 30
First Quarter

Hourly Weather History & Observations

Time (CST) Temp. Windchill Dew Point Humidity Pressure Visibility Wind Dir Wind Speed Gust Speed Precip Events Conditions
12:22 AM 26.6 °F - 21.2 °F 80% 29.77 in 10.0 mi Calm Calm - N/A   Mostly Cloudy
12:42 AM 26.6 °F - 21.2 °F 80% 29.77 in 10.0 mi Calm Calm - N/A   Mostly Cloudy
1:02 AM 26.6 °F - 21.2 °F 80% 29.77 in 10.0 mi Calm Calm - N/A   Mostly Cloudy
1:22 AM 26.6 °F - 21.2 °F 80% 29.77 in 10.0 mi Calm Calm - N/A   Mostly Cloudy
1:42 AM 26.6 °F - 21.2 °F 80% 29.77 in 10.0 mi Calm Calm - N/A   Mostly Cloudy
2:02 AM 26.6 °F - 19.4 °F 74% 29.76 in 10.0 mi Calm Calm - N/A   Mostly Cloudy
2:22 AM 26.6 °F - 19.4 °F 74% 29.76 in 10.0 mi Calm Calm - N/A   Overcast
2:42 AM 26.6 °F - 21.2 °F 80% 29.75 in 10.0 mi Calm Calm - N/A   Mostly Cloudy
3:02 AM 24.8 °F - 19.4 °F 80% 29.75 in 10.0 mi Calm Calm - N/A   Mostly Cloudy
3:23 AM 24.8 °F - 21.2 °F 86% 29.76 in 10.0 mi Calm Calm - N/A   Mostly Cloudy
3:43 AM 24.8 °F - 21.2 °F 86% 29.76 in 10.0 mi Calm Calm - N/A   Mostly Cloudy
4:02 AM 24.8 °F - 21.2 °F 86% 29.76 in 10.0 mi Calm Calm - N/A   Mostly Cloudy
4:23 AM 24.8 °F - 21.2 °F 86% 29.77 in 10.0 mi Calm Calm - N/A   Mostly Cloudy
4:42 AM 24.8 °F - 21.2 °F 86% 29.77 in 10.0 mi Calm Calm - N/A   Mostly Cloudy
5:03 AM 24.8 °F - 21.2 °F 86% 29.77 in 10.0 mi Calm Calm - N/A   Mostly Cloudy
5:22 AM 24.8 °F - 21.2 °F 86% 29.76 in 10.0 mi Calm Calm - N/A   Mostly Cloudy
5:42 AM 24.8 °F - 21.2 °F 86% 29.76 in 10.0 mi Calm Calm - N/A   Mostly Cloudy
6:02 AM 24.8 °F - 21.2 °F 86% 29.77 in 10.0 mi Calm Calm - N/A   Mostly Cloudy
6:23 AM 24.8 °F - 21.2 °F 86% 29.77 in 10.0 mi Calm Calm - N/A   Mostly Cloudy
6:42 AM 24.8 °F - 21.2 °F 86% 29.76 in 10.0 mi Calm Calm - N/A   Overcast
7:03 AM 23.0 °F - 21.2 °F 93% 29.76 in 10.0 mi Calm Calm - N/A   Mostly Cloudy
7:23 AM 24.8 °F - 21.2 °F 86% 29.77 in 10.0 mi Calm Calm - N/A   Mostly Cloudy
7:42 AM 24.8 °F - 21.2 °F 86% 29.77 in 10.0 mi Calm Calm - N/A   Mostly Cloudy
8:02 AM 24.8 °F - 19.4 °F 80% 29.76 in 10.0 mi Calm Calm - N/A   Mostly Cloudy
8:22 AM 24.8 °F - 19.4 °F 80% 29.76 in 10.0 mi Calm Calm - N/A   Mostly Cloudy
8:42 AM 26.6 °F - 19.4 °F 74% 29.76 in 10.0 mi Calm Calm - N/A   Overcast
9:02 AM 26.6 °F - 19.4 °F 74% 29.76 in 10.0 mi Calm Calm - N/A   Overcast
9:22 AM 26.6 °F - 19.4 °F 74% 29.76 in 10.0 mi Calm Calm - N/A   Mostly Cloudy
9:42 AM 26.6 °F - 19.4 °F 74% 29.77 in 10.0 mi Calm Calm - N/A   Mostly Cloudy
10:02 AM 26.6 °F - 19.4 °F 74% 29.77 in 10.0 mi Calm Calm - N/A   Mostly Cloudy
10:22 AM 28.4 °F - 19.4 °F 69% 29.77 in 10.0 mi Calm Calm - N/A   Mostly Cloudy
10:42 AM 28.4 °F - 19.4 °F 69% 29.77 in 10.0 mi Calm Calm - N/A   Mostly Cloudy
11:02 AM 28.4 °F - 19.4 °F 69% 29.78 in 10.0 mi Calm Calm - N/A   Scattered Clouds
11:22 AM 28.4 °F - 17.6 °F 64% 29.77 in 10.0 mi Calm Calm - N/A   Scattered Clouds
11:42 AM 28.4 °F 24.6 °F 19.4 °F 69% 29.78 in 5.0 mi ESE 3.5 mph - N/A Rain Light Freezing Rain
12:02 PM 28.4 °F - 21.2 °F 74% 29.77 in 4.0 mi Calm Calm - N/A Rain Light Freezing Rain
12:43 PM 28.4 °F - 21.2 °F 74% 29.77 in 7.0 mi Calm Calm - N/A   Scattered Clouds
1:02 PM 28.4 °F - 23.0 °F 80% 29.77 in 5.0 mi Calm Calm - N/A Rain Light Freezing Rain
1:30 PM 28.4 °F - 23.0 °F 80% 29.75 in 5.0 mi Calm Calm - N/A   Light Freezing Rain
1:42 PM 30.2 °F - 24.8 °F 80% 29.74 in 10.0 mi Calm Calm - N/A   Scattered Clouds
2:02 PM 32.0 °F - 21.2 °F 64% 29.73 in 10.0 mi Calm Calm - N/A   Scattered Clouds
2:22 PM 32.0 °F - 21.2 °F 64% 29.73 in 10.0 mi Calm Calm - N/A   Scattered Clouds
2:42 PM 32.0 °F 28.7 °F 21.2 °F 64% 29.73 in 10.0 mi South 3.5 mph - N/A   Scattered Clouds
3:03 PM 33.8 °F 30.8 °F 21.2 °F 60% 29.73 in 10.0 mi South 3.5 mph - N/A   Mostly Cloudy
3:22 PM 33.8 °F - 21.2 °F 60% 29.72 in 10.0 mi Calm Calm - N/A   Overcast
4:02 PM 32.0 °F - 21.2 °F 64% 29.72 in 10.0 mi Calm Calm - N/A   Scattered Clouds
4:23 PM 32.0 °F - 21.2 °F 64% 29.72 in 10.0 mi Calm Calm - N/A   Mostly Cloudy
4:42 PM 32.0 °F - 21.2 °F 64% 29.72 in 10.0 mi Calm Calm - N/A   Overcast
5:03 PM 32.0 °F - 23.0 °F 69% 29.72 in 10.0 mi Calm Calm - N/A   Overcast
5:22 PM 30.2 °F - 24.8 °F 80% 29.72 in 10.0 mi Calm Calm - N/A   Overcast
5:43 PM 30.2 °F - 24.8 °F 80% 29.72 in 10.0 mi Calm Calm - N/A   Overcast
6:03 PM 30.2 °F - 24.8 °F 80% 29.73 in 10.0 mi Calm Calm - N/A   Overcast
6:22 PM 30.2 °F - 24.8 °F 80% 29.74 in 10.0 mi Calm Calm - N/A   Overcast
6:43 PM 28.4 °F - 24.8 °F 86% 29.74 in 10.0 mi Calm Calm - N/A   Overcast
7:03 PM 30.2 °F - 24.8 °F 80% 29.75 in 10.0 mi Calm Calm - N/A   Overcast
7:23 PM 28.4 °F - 24.8 °F 86% 29.75 in 10.0 mi Calm Calm - N/A   Overcast
7:42 PM 28.4 °F - 24.8 °F 86% 29.74 in 10.0 mi Calm Calm - N/A   Overcast
8:02 PM 28.4 °F - 24.8 °F 86% 29.73 in 10.0 mi Calm Calm - N/A   Overcast
8:22 PM 28.4 °F - 24.8 °F 86% 29.72 in 10.0 mi Calm Calm - N/A   Overcast
8:42 PM 28.4 °F - 24.8 °F 86% 29.73 in 10.0 mi Calm Calm - N/A   Overcast
9:02 PM 28.4 °F - 24.8 °F 86% 29.73 in 10.0 mi Calm Calm - N/A   Overcast
9:22 PM 28.4 °F - 24.8 °F 86% 29.73 in 10.0 mi Calm Calm - N/A   Overcast
9:42 PM 28.4 °F - 24.8 °F 86% 29.73 in 10.0 mi Calm Calm - N/A   Overcast
10:02 PM 28.4 °F - 24.8 °F 86% 29.73 in 10.0 mi Calm Calm - N/A   Overcast
10:22 PM 28.4 °F - 24.8 °F 86% 29.73 in 10.0 mi Calm Calm - N/A   Overcast
10:42 PM 28.4 °F - 24.8 °F 86% 29.73 in 10.0 mi Calm Calm - N/A   Overcast
11:23 PM 26.6 °F - 24.8 °F 93% 29.72 in 10.0 mi Calm Calm - N/A   Overcast
11:42 PM 28.4 °F - 24.8 °F 86% 29.71 in 10.0 mi Calm Calm - N/A   Overcast